Hourly Data Report for May 13, 2012

All times are specified in Local Standard Time (LST). Add 1 hour to adjust for Daylight Saving Time where and when it is observed.

PENTICTON A
BRITISH COLUMBIA

49°27'45.000" N
119°36'08.000" W
344.40 m
1126146
71889
YYF

Download Data

Hourly Data (May 2012)
Hourly Data Report for May 13, 2012
Temp Definition
°C
Dew Point Temp Definition
°C
Rel Hum Definition
%
Wind Dir Definition
10's deg

Wind Spd Definition
km/h
Visibility Definition
km
Stn Press Definition
kPa
Hmdx Definition


Wind Chill Definition


Weather Definition


TIME
00:00 Legend Double Dagger 9.5 0.9 55 4 5 10.0 98.14     LegendNANA
01:00 Legend Double Dagger 9.7 0.6 53 7 6 10.0 98.17     Clear
02:00 Legend Double Dagger 8.1 0.8 60   0 10.0 98.19     LegendNANA
03:00 Legend Double Dagger 6.2 0.3 66 35 5 10.0 98.22     LegendNANA
04:00 Legend Double Dagger 5.7 0.1 67   0 10.0 98.24     Clear
05:00 Legend Double Dagger 5.7 1.6 75   0 10.0 98.29     LegendNANA
06:00 Legend Double Dagger 9.5 4.7 72   0 10.0 98.33     LegendNANA
07:00 Legend Double Dagger 12.4 1.5 47 12 4 10.0 98.34     Mainly Clear
08:00 Legend Double Dagger 14.8 1.1 39 21 8 10.0 98.30     LegendNANA
09:00 Legend Double Dagger 16.8 3.2 40   0 10.0 98.25     LegendNANA
10:00 Legend Double Dagger 19.5 3.4 34 15 10 10.0 98.17     Mainly Clear
11:00 Legend Double Dagger 22.5 3.3 28 16 22 10.0 98.07     LegendNANA
12:00 Legend Double Dagger 23.8 1.6 23 17 24 10.0 97.97     LegendNANA
13:00 Legend Double Dagger 25.1 2.8 23 17 26 10.0 97.88     Mainly Clear
14:00 Legend Double Dagger 26.3 2.5 21 16 22 10.0 97.79 25   LegendNANA
15:00 Legend Double Dagger 26.8 2.9 21 16 24 10.0 97.70 25   LegendNANA
16:00 Legend Double Dagger 26.1 3.0 22 16 27 10.0 97.66 25   Mainly Clear
17:00 Legend Double Dagger 26.1 3.0 22 18 20 10.0 97.61 25   LegendNANA
18:00 Legend Double Dagger 22.6 7.0 36 19 17 10.0 97.58     LegendNANA
19:00 Legend Double Dagger 20.4 5.4 37 18 14 10.0 97.59     Clear
20:00 Legend Double Dagger 20.0 4.2 35 21 8 10.0 97.65     LegendNANA
21:00 Legend Double Dagger 15.1 4.6 49 33 5 10.0 97.71     LegendNANA
22:00 Legend Double Dagger 14.6 3.5 47   0 10.0 97.74     Clear
23:00 Legend Double Dagger 12.1 2.9 53   0 10.0 97.77     LegendNANA

Notes on Data Quality.

Legend

  • E = Estimated
  • M = Missing
  • NA = Not Available
  • ‡ = Partner data that is not subject to review by the National Climate Archives
Date modified: